When you browse on this site, cookies collect data to enhance your experience and personalize the content and advertising you see.
Visit our Privacy Policy to learn more. By continuing to use the site, you agree to this use of cookies and data.
  • Em Portugal
  • Lista de países
  • Para 7 dias
  • Temperatura da água
  • Mapa do tempo
  • Widgets de tempo
  • user-avatar
    Iniciar Sessão

    Previsão horária em Ischgl

    Hoje, 19 Novembro, Terça-feira

    Tempo Temperatura Precipitação Vento Pressão Humidade
    00:00 -12°C° 0 mm 2 m/s 567 mmHg 89%
    01:00 -13°C° 0 mm 3 m/s 567 mmHg 89%
    02:00 -12°C° 0.1 mm 2 m/s 567 mmHg 89%
    03:00 -12°C° 0.1 mm 2 m/s 567 mmHg 89%
    04:00 -10°C° 0.1 mm 2 m/s 567 mmHg 90%
    05:00 -12°C° 0 mm 3 m/s 567 mmHg 90%
    06:00 -12°C° 0 mm 3 m/s 567 mmHg 90%
    07:00 -12°C° 0 mm 3 m/s 567 mmHg 90%
    08:00 -9°C° 0 mm 3 m/s 568 mmHg 90%
    09:00 -8°C° 0 mm 3 m/s 569 mmHg 91%
    10:00 -6°C° 0 mm 3 m/s 570 mmHg 91%
    11:00 -4°C° 0.1 mm 2 m/s 570 mmHg 93%
    12:00 -4°C° 0.1 mm 2 m/s 570 mmHg 95%
    13:00 -3°C° 0 mm 2 m/s 571 mmHg 96%
    14:00 -4°C° 0 mm 2 m/s 570 mmHg 96%
    15:00 -4°C° 0 mm 2 m/s 570 mmHg 95%
    16:00 -5°C° 0 mm 2 m/s 569 mmHg 95%
    17:00 -6°C° 0 mm 2 m/s 569 mmHg 94%
    18:00 -6°C° 0 mm 2 m/s 569 mmHg 94%
    19:00 -7°C° 0 mm 2 m/s 569 mmHg 93%
    20:00 -7°C° 0 mm 2 m/s 569 mmHg 93%
    21:00 -7°C° 0 mm 2 m/s 568 mmHg 92%
    22:00 -9°C° 0 mm 3 m/s 568 mmHg 91%
    23:00 -9°C° 0 mm 3 m/s 568 mmHg 91%

    Amanhã, 20 Novembro, Quarta-feira

    Tempo Temperatura Precipitação Vento Pressão Humidade
    00:00 -9°C° 0 mm 3 m/s 568 mmHg 91%
    01:00 -8°C° 0 mm 3 m/s 568 mmHg 91%
    02:00 -7°C° 0 mm 2 m/s 568 mmHg 91%
    03:00 -7°C° 0 mm 2 m/s 568 mmHg 90%
    04:00 -7°C° 0 mm 2 m/s 568 mmHg 90%
    05:00 -7°C° 0 mm 2 m/s 568 mmHg 90%
    06:00 -8°C° 0 mm 2 m/s 567 mmHg 89%
    07:00 -8°C° 0 mm 2 m/s 567 mmHg 89%
    08:00 -7°C° 0 mm 2 m/s 568 mmHg 89%
    09:00 -5°C° 0 mm 2 m/s 568 mmHg 89%
    10:00 -4°C° 0 mm 2 m/s 569 mmHg 89%
    11:00 -2°C° 0 mm 1 m/s 569 mmHg 91%
    12:00 -1°C° 0 mm 1 m/s 569 mmHg 94%
    13:00 0°C° 0 mm 1 m/s 569 mmHg 96%
    14:00 -1°C° 0 mm 1 m/s 569 mmHg 95%
    15:00 -2°C° 0 mm 1 m/s 568 mmHg 94%
    16:00 -3°C° 0 mm 1 m/s 567 mmHg 93%
    17:00 -4°C° 0 mm 1 m/s 567 mmHg 91%
    18:00 -6°C° 0 mm 1 m/s 567 mmHg 89%
    19:00 -8°C° 0 mm 2 m/s 566 mmHg 88%
    20:00 -8°C° 0 mm 2 m/s 566 mmHg 87%
    21:00 -8°C° 0 mm 2 m/s 566 mmHg 85%
    22:00 -8°C° 0 mm 2 m/s 566 mmHg 84%
    23:00 -9°C° 0 mm 2 m/s 565 mmHg 84%

    Depois de amanhã, 21 Novembro, Quinta-feira

    Tempo Temperatura Precipitação Vento Pressão Humidade
    00:00 -9°C° 0 mm 2 m/s 565 mmHg 84%
    01:00 -9°C° 0 mm 2 m/s 565 mmHg 83%
    02:00 -9°C° 0 mm 2 m/s 565 mmHg 84%
    03:00 -9°C° 0 mm 2 m/s 565 mmHg 84%
    04:00 -10°C° 0 mm 2 m/s 564 mmHg 84%
    05:00 -10°C° 0 mm 2 m/s 564 mmHg 85%
    06:00 -12°C° 0 mm 3 m/s 564 mmHg 86%
    07:00 -12°C° 0 mm 3 m/s 564 mmHg 87%
    08:00 -9°C° 0 mm 3 m/s 565 mmHg 88%
    09:00 -7°C° 0 mm 2 m/s 566 mmHg 88%
    10:00 -6°C° 0 mm 2 m/s 567 mmHg 89%
    11:00 -5°C° 0 mm 2 m/s 567 mmHg 90%
    12:00 -4°C° 0 mm 2 m/s 567 mmHg 92%
    13:00 -4°C° 0 mm 2 m/s 567 mmHg 93%
    14:00 -4°C° 0 mm 2 m/s 567 mmHg 92%
    15:00 -4°C° 0 mm 2 m/s 567 mmHg 91%
    16:00 -5°C° 0 mm 2 m/s 566 mmHg 90%
    17:00 -6°C° 0 mm 2 m/s 566 mmHg 90%
    18:00 -7°C° 0 mm 2 m/s 566 mmHg 90%
    19:00 -8°C° 0 mm 3 m/s 566 mmHg 89%
    20:00 -9°C° 0 mm 3 m/s 565 mmHg 89%
    21:00 -9°C° 0 mm 3 m/s 565 mmHg 89%
    22:00 -9°C° 0 mm 3 m/s 565 mmHg 89%
    23:00 -10°C° 0 mm 3 m/s 565 mmHg 89%

    22 Novembro, Sexta-feira

    Tempo Temperatura Precipitação Vento Pressão Humidade
    00:00 -12°C° 0 mm 3 m/s 565 mmHg 90%
    01:00 -12°C° 0 mm 3 m/s 565 mmHg 90%
    02:00 -12°C° 0 mm 3 m/s 565 mmHg 90%
    03:00 -12°C° 0 mm 3 m/s 565 mmHg 90%
    04:00 -13°C° 0 mm 3 m/s 564 mmHg 90%
    05:00 -13°C° 0 mm 3 m/s 564 mmHg 90%
    06:00 -13°C° 0 mm 3 m/s 564 mmHg 89%
    07:00 -14°C° 0 mm 3 m/s 564 mmHg 88%
    08:00 -12°C° 0 mm 3 m/s 565 mmHg 88%
    09:00 -10°C° 0 mm 3 m/s 565 mmHg 88%
    10:00 -8°C° 0 mm 3 m/s 566 mmHg 87%
    11:00 -7°C° 0 mm 3 m/s 566 mmHg 88%
    12:00 -6°C° 0 mm 3 m/s 567 mmHg 90%
    13:00 -5°C° 0 mm 3 m/s 567 mmHg 91%
    14:00 -6°C° 0 mm 3 m/s 566 mmHg 91%
    15:00 -6°C° 0 mm 3 m/s 566 mmHg 91%
    16:00 -7°C° 0 mm 3 m/s 565 mmHg 91%
    17:00 -8°C° 0 mm 3 m/s 565 mmHg 91%
    18:00 -10°C° 0 mm 4 m/s 564 mmHg 90%
    19:00 -11°C° 0 mm 4 m/s 564 mmHg 90%
    20:00 -11°C° 0 mm 4 m/s 564 mmHg 90%
    21:00 -11°C° 0 mm 4 m/s 564 mmHg 90%
    22:00 -11°C° 0 mm 4 m/s 564 mmHg 90%
    23:00 -11°C° 0 mm 4 m/s 564 mmHg 90%

    23 Novembro, Sábado

    Tempo Temperatura Precipitação Vento Pressão Humidade
    00:00 -10°C° 0 mm 4 m/s 564 mmHg 90%
    01:00 -10°C° 0 mm 4 m/s 564 mmHg 90%
    02:00 -10°C° 0 mm 4 m/s 564 mmHg 90%
    03:00 -10°C° 0 mm 4 m/s 563 mmHg 90%
    04:00 -10°C° 0 mm 4 m/s 563 mmHg 90%
    05:00 -10°C° 0 mm 4 m/s 563 mmHg 90%
    06:00 -10°C° 0 mm 4 m/s 563 mmHg 90%
    07:00 -10°C° 0 mm 4 m/s 563 mmHg 90%
    08:00 -9°C° 0 mm 4 m/s 563 mmHg 90%
    09:00 -8°C° 0 mm 4 m/s 564 mmHg 90%
    10:00 -7°C° 0 mm 5 m/s 564 mmHg 90%
    11:00 -5°C° 0 mm 4 m/s 564 mmHg 91%
    12:00 -4°C° 0 mm 4 m/s 565 mmHg 93%
    13:00 -4°C° 0 mm 4 m/s 565 mmHg 94%
    14:00 -4°C° 0 mm 4 m/s 564 mmHg 93%
    15:00 -4°C° 0 mm 4 m/s 564 mmHg 92%
    16:00 -5°C° 0 mm 3 m/s 564 mmHg 91%
    17:00 -5°C° 0 mm 3 m/s 564 mmHg 91%
    18:00 -7°C° 0 mm 4 m/s 564 mmHg 91%
    19:00 -7°C° 0 mm 4 m/s 564 mmHg 91%
    20:00 -7°C° 0 mm 4 m/s 564 mmHg 91%
    21:00 -7°C° 0 mm 4 m/s 564 mmHg 91%
    22:00 -7°C° 0 mm 4 m/s 565 mmHg 91%
    23:00 -7°C° 0 mm 4 m/s 565 mmHg 91%

    24 Novembro, Domingo

    Tempo Temperatura Precipitação Vento Pressão Humidade
    00:00 -7°C° 0 mm 4 m/s 565 mmHg 91%
    01:00 -7°C° 0 mm 4 m/s 565 mmHg 92%
    02:00 -7°C° 0 mm 4 m/s 565 mmHg 91%
    03:00 -7°C° 0 mm 3 m/s 565 mmHg 91%
    04:00 -7°C° 0 mm 3 m/s 565 mmHg 91%
    05:00 -7°C° 0 mm 3 m/s 565 mmHg 90%
    06:00 -8°C° 0 mm 3 m/s 565 mmHg 88%
    07:00 -8°C° 0 mm 3 m/s 565 mmHg 87%
    08:00 -7°C° 0 mm 3 m/s 565 mmHg 86%
    09:00 -6°C° 0 mm 3 m/s 566 mmHg 85%
    10:00 -5°C° 0 mm 3 m/s 567 mmHg 84%
    11:00 -4°C° 0 mm 3 m/s 567 mmHg 87%
    12:00 -2°C° 0 mm 2 m/s 567 mmHg 90%
    13:00 -2°C° 0 mm 2 m/s 568 mmHg 93%
    14:00 -2°C° 0 mm 2 m/s 567 mmHg 89%
    15:00 -3°C° 0 mm 2 m/s 567 mmHg 85%
    16:00 -4°C° 0 mm 2 m/s 567 mmHg 81%
    17:00 -3°C° 0 mm 1 m/s 567 mmHg 79%
    18:00 -3°C° 0 mm 1 m/s 567 mmHg 77%
    19:00 -4°C° 0 mm 1 m/s 567 mmHg 74%
    20:00 -6°C° 0 mm 1 m/s 567 mmHg 73%
    21:00 -6°C° 0 mm 1 m/s 567 mmHg 71%
    22:00 -6°C° 0 mm 1 m/s 567 mmHg 70%
    23:00 -6°C° 0 mm 1 m/s 566 mmHg 69%
    Mostrar mais